Flag for United Kingdom Weather past 2 weeks in Eastbourne, England, United Kingdom

Now
54 °F

Cool.


Feels Like: 54 °F
Forecast: 56 / 67 °F
Wind: 3 mph from Northeast

Location: Herstmonceux

Current Time: Jul 5, 2015 at 4:50:28 AM

Latest Report: Jul 5, 2015 at 3:00 AM


Visibility: 9 mi

Pressure: 30.13 "Hg

Humidity: 95%

Dew point: 53 °F

Location of EastbourneLocation

Historic Weather in Eastbourne — Graph

°F

Eastbourne temperature yesterday

Maximum temperature yesterday: 71 °F (at 5:00 PM)
Minimum temperature yesterday: 61 °F (at 11:00 PM)
Average temperature yesterday: 67 °F

Past Weeks' High & Low Weather Summary

 TemperatureHumidityPressure
High89 °F (Jul 1, 4:00 PM)100% (Jun 21, 12:00 AM)30.29 "Hg (Jun 21, 12:00 AM)
Low45 °F (Jun 24, 5:00 AM)38% (Jun 30, 5:00 PM)29.78 "Hg (Jun 22, 4:00 PM)
Average62 °F76%30.09 "Hg
* Reported Jun 20 3:00 AM — Jul 5 3:00 AM, Eastbourne, Weather by CustomWeather, © 2015

Note: Actual official high and low records may vary slightly from our data, if they occured in-between our weather recording intervals... More about our weather records

Advertising

Eastbourne weather history for previous 24 hours

 ConditionsComfort  
Time TempWeatherWind HumidityBarometerVisibility
3:00 AM
Sun, Jul 5
54 °FCool.3 mph95%30.13 "Hg9 mi
2:00 AM54 °FCool.1 mph93%30.15 "Hg11 mi
1:00 AM55 °FCool.1 mph92%30.15 "Hg14 mi
12:00 AM56 °FCool.2 mph86%30.15 "Hg16 mi
11:00 PM
Sat, Jul 4
61 °FCool.2 mph71%30.14 "Hg22 mi
10:00 PM62 °FCool.1 mph69%30.14 "Hg19 mi
9:00 PM63 °FMild.3 mph77%30.13 "Hg14 mi
8:00 PM65 °FMild.7 mph70%30.15 "Hg19 mi
7:00 PM68 °FMild.8 mph58%30.15 "Hg18 mi
6:00 PM70 °FMild.9 mph60%30.14 "Hg17 mi
5:00 PM71 °FMild.9 mph66%30.15 "Hg11 mi
4:00 PM70 °FMild.10 mph64%30.15 "Hg28 mi
3:00 PM70 °FMild.13 mph65%30.14 "Hg16 mi
2:00 PM70 °FMild.14 mph61%30.13 "Hg18 mi
1:00 PM70 °FMild.12 mph71%30.12 "Hg8 mi
12:00 PM70 °FMild.13 mph72%30.11 "Hg10 mi
11:00 AM71 °FMild.13 mph71%30.09 "Hg16 mi
10:00 AM68 °FMild.8 mph78%30.07 "Hg9 mi
9:00 AM65 °FMild.8 mph90%30.08 "Hg6 mi
8:00 AM67 °FSmoke.7 mph89%30.05 "Hg6 mi
7:00 AM66 °FFog.5 mph96%30.02 "Hg4 mi
6:00 AM64 °FFog.2 mph100%30.00 "Hg3 mi
5:00 AM63 °FFog.2 mph100%29.97 "Hg3 mi
4:00 AM64 °FFog.1 mph97%29.95 "Hg2 mi
Weather by CustomWeather, © 2015

See weather overviewHow to use our weather pages